Regional Weather Roundup
Issued by NWS

Home | Current Version | Previous Version | Graphics & Text | Print | Product List | Glossary On
Versions: 1 2 3 4 5 6 7 8 9 10 11 12 13 14 15 16 17 18 19 20 21 22 23 24 25 26 27 28 29 30 31 32 33 34 35 36 37 38 39 40 41 42 43 44 45 46 47 48 49 50
000
ASUS43 KLOT 161708
RWRIL

ILLINOIS REGIONAL WEATHER ROUNDUP
NATIONAL WEATHER SERVICE CHICAGO/ROMEOVILLE IL
1100 AM CST MON JAN 16 2017

NOTE: "FAIR" INDICATES FEW OR NO CLOUDS BELOW 12,000 FEET WITH NO
SIGNIFICANT WEATHER AND/OR OBSTRUCTIONS TO VISIBILITY.

* THESE STATIONS ARE NOT UNDER NWS QUALITY CONTROL. THEY ALSO MAY NOT
  REPORT WEATHER SUCH AS PRECIPITATION OR FOG.

ILZ001-002-007-009-015-016-024-161800-
NORTHWEST ILLINOIS

CITY           SKY/WX    TMP DP  RH WIND       PRES   REMARKS
MOLINE         RAIN      35  32  88 E13       30.11F FOG     WCI  26
STERLING*      LGT RAIN  34  33  96 E13       30.16F FOG     WCI  25
SAVANNA*       LGT RAIN  33  32  96 E7        30.15F WCI  27
$$

ILZ003-004-008-010-011-017-018-161800-
NORTH CENTRAL ILLINOIS

CITY           SKY/WX    TMP DP  RH WIND       PRES   REMARKS
ROCKFORD       LGT RAIN  34  31  88 E6        30.19F FOG     WCI  29
FREEPORT*      DRIZZLE   32  31  96 E7        30.18F WCI  26
ROCHELLE*      LGT RAIN  32  32  99 SE7       30.17F WCI  26
DE KALB*       MIX PCPN  32  32  99 E7        30.18F VSB 3/4 WCI  26
$$

ILZ005-006-012>014-019>023-161800-
NORTHEAST ILLINOIS

CITY           SKY/WX    TMP DP  RH WIND       PRES   REMARKS
CHICAGO-OHARE  LGT RAIN  34  32  92 SE7       30.21F VSB 1   WCI  28
CHICAGO-MIDWAY LGT RAIN  35  33  92 SE6       30.22F FOG     WCI  30
AURORA         CLOUDY    35  33  92 E8        30.19F FOG     WCI  29
LANSING*       CLOUDY    34  34 100 SE5       30.22F FOG     WCI  30
JOLIET*        CLOUDY    36  35  96 SE7       30.21F FOG     WCI  30
WAUKEGAN       LGT RAIN  33  31  92 E5        30.22F FOG     WCI  29
DUPAGE AIRPORT RAIN      34  32  92 E7        30.19F FOG     WCI  28
KANKAKEE*      FOG       34  34  98 CALM      30.21F VSB 1/2
WHEELING       LGT RAIN  34  32  92 SE5       30.23F FOG     WCI  30
MORRIS*        CLOUDY    34  33  96 E8        30.19F FOG     WCI  27
ROMEOVILLE*    DRIZZLE   33  33 100 SE8       30.21F WCI  27
NORTHERLY ISL    N/A     32  31  96 E6          N/A  WCI  26
$$

LMZ740>746-161800-
SOUTHERN LAKE MICHIGAN

STATION/POSITION SKY/WX   TEMP    WIND        PRES    VSBY  WAVE
                          AIR SEA DIR/SP/G                  HT/PER
                          (F)     (DEG/KT/KT) (MB)    (MI)  (FT/S)
HARRISON CRIB              33     130/  9/  9   N/A
BURNHAM HARBOR             32     120/  3/  6   N/A
CALUMET HARBOR             32      80/  5/  6 1022.9F
BURNS HARBOR               35     130/  5/ 10 1024.0F
MICHIGAN CITY              34     100/  9/ 11   N/A
$$

ILZ025>027-034>036-040-047-049-050-058-095>099-161800-
WEST-CENTRAL ILLINOIS

CITY           SKY/WX    TMP DP  RH WIND       PRES   REMARKS
QUINCY         LGT RAIN  37  37 100 SE12      30.05F FOG     WCI  29
GALESBURG*     DRIZZLE   34  34 100 E9G16     30.10F WCI  26
MACOMB*        MIX PCPN  34  34 100 E12       30.11F VSB 1   WCI  25
JACKSONVILLE*  DRZL/FOG  38  37  99 E8        30.09F VSB 1/4 WCI  32
PITTSFIELD*    LGT RAIN  39  39 100 SE8       30.08F VSB 3/4 WCI  34
$$

ILZ028>032-037-038-041>044-048-051>054-059>061-161800-
CENTRAL ILLINOIS

CITY           SKY/WX    TMP DP  RH WIND       PRES   REMARKS
PONTIAC        LGT RAIN  34  34 100 E10       30.19F VSB 1/4 WCI  26
BLOOMINGTON    LGT RAIN  36  35  96 E13       30.15F VSB 1/4 WCI  27
DECATUR        FOG       39  39 100 E9        30.14F VSB 1/4 WCI  33
PEORIA         RAIN      35  35 100 E8        30.13F VSB 1   WCI  29
LACON*         RAIN      33  33 100 E12G18    30.14F VSB 3/4 WCI  24
LINCOLN*       FOG       37  37 100 E7        30.13F VSB 1/4 WCI  32
SPRINGFIELD    FOG       40  39  97 SE10      30.11F VSB 1/4
TAYLORVILLE    FOG       42  42 100 SE7       30.11F VSB 1/4
$$

ILZ033-039-045-046-055>057-062-063-161800-
EAST-CENTRAL ILLINOIS

CITY           SKY/WX    TMP DP  RH WIND       PRES   REMARKS
CHAMPAIGN      FOG       39  37  92 E14       30.15F VSB 1/4 WCI  31
RANTOUL*       FOG       38  38  99 E10       30.17F VSB 1/4 WCI  31
MATTOON        FOG       43  43 100 SE10      30.14F VSB 1/4
PARIS*         FOG       41  41 100 E9        30.19F VSB 1/2
$$

ILZ079-100>102-161800-
SOUTHWEST ILLINOIS

CITY           SKY/WX    TMP DP  RH WIND       PRES   REMARKS
ALTON          CLOUDY    45  45 100 SE10      30.11F FOG
BELLEVILLE     LGT RAIN  46  46 100 SE8       30.09F FOG
CAHOKIA*       LGT RAIN  46  44  93 SE9       30.09F FOG
SPARTA*        LGT RAIN  45  45  99 SE10      30.11F
$$

ILZ064>066-069>071-074>076-080>082-084>086-088>090-092>094-161800-
SOUTH-CENTRAL ILLINOIS

CITY           SKY/WX    TMP DP  RH WIND       PRES   REMARKS
CARBONDALE     LGT RAIN  48  48 100 E3        30.13F FOG
CAIRO*         CLOUDY    52  52  99 E3        30.13F
EFFINGHAM*     FOG       45  45 100 E10       30.16F VSB 1/4
MT. VERNON     CLOUDY    46  46 100 SE3       30.15F FOG
CENTRALIA*     CLOUDY    48  48 100 SE9       30.12F FOG
SALEM*         FOG       47  45  95 SE8       30.14F VSB 1
METROPOLIS*    RAIN      51  51  97 CALM      30.15F
$$

ILZ067-068-072-073-078-083-087-091-161800-
SOUTHEAST ILLINOIS

CITY           SKY/WX    TMP DP  RH WIND       PRES   REMARKS
LAWRENCEVILLE  CLOUDY    47  47 100 E7        30.18F FOG
FLORA*         FOG       47  47  99 SE9       30.17F VSB 1/2
FAIRFIELD*     CLOUDY    47  47 100 CALM      30.15F FOG
HARRISBURG*    CLOUDY    47  47 100 E6        30.16F FOG
ROBINSON*      CLOUDY    44  44  99 SE6       30.20F FOG
CARMI*         CLOUDY    48  48 100 SE8       30.18F FOG
$$

ABBREVIATIONS USED IN REMARKS
   TC - TEMPERATURE IN CELSIUS
  WCI - WIND CHILL INDEX
   HX - HEAT INDEX
  VSB - VISIBILITY
$$





USA.gov is the U.S. government's official web portal to all federal, state and local government web resources and services.